Flag for Ireland Weather past 2 weeks in Cork, Ireland

Now
60 °F

Partly sunny.


Feels Like: 60 °F
Forecast: 49 / 64 °F
Wind: 2 mph from East

Location: Cork Airport

Current Time: Aug 30, 2015 at 7:43:09 PM

Latest Report: Aug 30, 2015 at 7:00 PM


Visibility: 31 mi

Pressure: 30.10 "Hg

Humidity: 69%

Dew point: 49 °F

Location of CorkLocation

Historic Weather in Cork — Graph

°F

Cork temperature yesterday

Maximum temperature yesterday: 54 °F (at 11:00 PM)
Minimum temperature yesterday: 53 °F (at 9:00 PM)
Average temperature yesterday: 53 °F

Past Weeks' High & Low Weather Summary

 TemperatureHumidityPressure
High67 °F (Aug 19, 2:00 PM)100% (Aug 16, 12:00 AM)30.12 "Hg (Aug 16, 12:00 AM)
Low45 °F (Aug 27, 7:00 AM)52% (Aug 24, 2:00 PM)29.38 "Hg (Aug 26, 1:00 AM)
Average57 °F91%29.82 "Hg
* Reported Aug 15 6:00 PM — Aug 30 6:00 PM, Cork, Weather by CustomWeather, © 2015

Note: Actual official high and low records may vary slightly from our data, if they occured in-between our weather recording intervals... More about our weather records

Advertising

Cork weather history for previous 24 hours

 ConditionsComfort  
Time TempWeatherWind HumidityBarometerVisibility
6:00 PM
Sun, Aug 30
60 °FOvercast.2 mph64%30.10 "Hg31 mi
5:00 PM61 °FOvercast.2 mph62%30.11 "Hg31 mi
4:00 PM60 °FOvercast.2 mph64%30.10 "Hg31 mi
3:00 PM61 °FOvercast.5 mph67%30.10 "Hg31 mi
2:00 PM61 °FOvercast.3 mph65%30.11 "Hg31 mi
1:00 PM60 °FOvercast.3 mph65%30.12 "Hg31 mi
12:00 PM60 °FOvercast.3 mph77%30.11 "Hg31 mi
11:00 AM57 °FOvercast.3 mph82%30.12 "Hg31 mi
10:00 AM56 °FOvercast.2 mph87%30.11 "Hg31 mi
9:00 AM54 °FOvercast.3 mph93%30.11 "Hg28 mi
8:00 AM52 °FOvercast.5 mph97%30.11 "Hg28 mi
7:00 AM51 °FOvercast.2 mph99%30.10 "Hg22 mi
6:00 AM51 °FOvercast.3 mph99%30.09 "Hg22 mi
5:00 AM50 °FFog.2 mph98%30.09 "Hg22 mi
4:00 AM51 °FFog.3 mph99%30.09 "Hg22 mi
3:00 AM52 °FPassing clouds.5 mph94%30.09 "Hg19 mi
2:00 AM53 °FPassing clouds.3 mph94%30.09 "Hg19 mi
1:00 AM53 °FPassing clouds.3 mph96%30.10 "Hg19 mi
12:00 AM54 °FPassing clouds.3 mph93%30.09 "Hg19 mi
11:00 PM
Sat, Aug 29
54 °FPassing clouds.2 mph96%30.09 "Hg19 mi
9:00 PM53 °FPassing clouds.3 mph96%30.07 "Hg31 mi
Weather by CustomWeather, © 2015

See weather overviewHow to use our weather pages